Location: Guferjoch
(46.7462°N, 8.4506°E)
Time: 00:29:32
(UTC+00:00)

Landsat 4 - Pass Details

Date: 14 July 2020
Orbit: 506 x 522 km, 98.2° (Epoch: 03 August)

Event Time Altitude Azimuth Distance (km) Brightness Sun altitude
Rises 00:04:25 0° 8° (N) 2,658 8.9 -21.2°
Reaches altitude 10° 00:06:34 10° 3° (N) 1,767 7.6 -21.2°
Maximum altitude 00:10:14 48° 289° (WNW) 690 4.3 -21.1°
Enters shadow 00:10:42 45° 264° (W) 720 4.2 -21.1°
